Overview Statistics Trail Chart Weather Telemetry Raw packets
 

This is the latest recevied weather packets stored in our database for station/object K0QED. If no packets are shown the sender has not sent any weather packets the latest 10 day(s).

<< 77 78 79 80 81 82 83 >>
Time Temp. Humidity Pressure Rain* Wind** Luminosity Snow
1788065202 15.56° C 69% 1026.4 hPa 0 mm - 0 W/m² -
1788064898 15.56° C 69% 1026.4 hPa 0 mm - 0 W/m² -
1788064593 16.11° C 68% 1026.2 hPa 0 mm - 0 W/m² -
1788064292 16.11° C 66% 1026.4 hPa 0 mm - 0 W/m² -
1788063990 16.67° C 64% 1026.2 hPa 0 mm - 0 W/m² -
1788063685 16.67° C 60% 1026.4 hPa 0 mm - 0 W/m² -
1788063384 16.67° C 59% 1026.4 hPa 0 mm - 0 W/m² -
1788063083 16.67° C 58% 1026.2 hPa 0 mm - 0 W/m² -
1788062779 16.67° C 57% 1026.2 hPa 0 mm - 0 W/m² -
1788062475 16.11° C 59% 1026.2 hPa 0 mm - 0 W/m² -
1788062173 16.11° C 58% 1026.6 hPa 0 mm - 0 W/m² -
1788061868 16.11° C 58% 1026.4 hPa 0 mm - 0 W/m² -
1788061563 16.67° C 56% 1026.6 hPa 0 mm - 0 W/m² -
1788061263 16.67° C 57% 1026.5 hPa 0 mm - 0 W/m² -
1788060958 16.67° C 56% 1026.5 hPa 0 mm - 0 W/m² -
1788060653 16.67° C 55% 1026.5 hPa 0 mm - 0 W/m² -
1788060353 17.22° C 55% 1026.2 hPa 0 mm - 0 W/m² -
1788060048 17.22° C 56% 1026.2 hPa 0 mm - 0 W/m² -
1788059743 17.22° C 55% 1026 hPa 0 mm - 0 W/m² -
1788059438 17.78° C 55% 1025.9 hPa 0 mm - 0 W/m² -
1788059134 17.78° C 53% 1025.7 hPa 0 mm - 0 W/m² -
1788058830 18.33° C 51% 1026.2 hPa 0 mm - 0 W/m² -
1788058528 18.33° C 50% 1025.9 hPa 0 mm - 0 W/m² -
1788058227 18.89° C 50% 1026 hPa 0 mm - 0 W/m² -
1788057922 18.89° C 48% 1026.1 hPa 0 mm - 0 W/m² -

* Rain latest hour (hover to see other rain measurements)
** Current wind speed in m/s (hover to see current wind gust speed)